DW6610 Weather Reports


Display with metric or nautical units.
time (UTC)temp
F
wind
direction
speed
MPH
gust
MPH
rain 1hr
in
rain 24hr
in
rain mn
in
humidity
%
barometer
mb
20260906163553 100 108 2.0 6.0 0.00 0.00 0.00 54 1013.9
20260906163100 100 150 2.0 5.0 0.00 0.00 0.00 50 1014.0
20260906162552 100 160 1.0 4.0 0.00 0.00 0.00 52 1014.0
20260906162051 100 123 1.0 4.0 0.00 0.00 0.00 54 1013.9
20260906161624 100 103 2.0 5.0 0.00 0.00 0.00 53 1014.1
20260906161051 100 133 1.0 5.0 0.00 0.00 0.00 56 1014.0
20260906160552 100 0 2.0 3.0 0.00 0.00 0.00 58 1014.0
20260906160101 99 0 1.0 3.0 0.00 0.00 0.00 60 1014.1
20260906155555 99 83 1.0 3.0 0.00 0.00 0.00 57 1014.1
20260906155051 98 0 0.0 3.0 0.00 0.00 0.00 57 1014.1
20260906154559 98 126 1.0 3.0 0.00 0.00 0.00 61 1014.0
20260906154052 99 155 0.0 3.0 0.00 0.00 0.00 58 1014.0
20260906153551 99 94 0.0 2.0 0.00 0.00 0.00 60 1014.0
20260906153111 98 128 0.0 2.0 0.00 0.00 0.00 60 1013.9
20260906152551 97 137 0.0 2.0 0.00 0.00 0.00 62 1014.0
20260906152051 97 137 0.0 1.0 0.00 0.00 0.00 60 1013.9
20260906151604 96 86 0.0 2.0 0.00 0.00 0.00 61 1013.9
20260906151051 96 76 0.0 2.0 0.00 0.00 0.00 63 1014.0
20260906150551 95 0 0.0 2.0 0.00 0.00 0.00 67 1014.1
20260906150109 95 72 0.0 3.0 0.00 0.00 0.00 64 1014.1
20260906145551 94 102 0.0 3.0 0.00 0.00 0.00 66 1014.1
20260906145052 94 102 1.0 3.0 0.00 0.00 0.00 64 1014.1
20260906144559 93 109 1.0 3.0 0.00 0.00 0.00 66 1014.1
20260906144050 93 69 0.0 3.0 0.00 0.00 0.00 66 1014.1
20260906143552 92 50 0.0 2.0 0.00 0.00 0.00 67 1014.2
20260906143106 92 120 0.0 2.0 0.00 0.00 0.00 68 1014.3
20260906142551 92 212 0.0 2.0 0.00 0.00 0.00 67 1014.1
20260906142052 92 126 0.0 2.0 0.00 0.00 0.00 70 1014.3
20260906141621 91 157 0.0 2.0 0.00 0.00 0.00 68 1014.4
20260906141051 90 0 0.0 2.0 0.00 0.00 0.00 73 1014.4
20260906140551 90 70 0.0 2.0 0.00 0.00 0.00 71 1014.4
20260906140100 89 79 0.0 3.0 0.00 0.00 0.00 73 1014.4
20260906135551 89 85 0.0 3.0 0.00 0.00 0.00 74 1014.4
20260906135050 88 77 0.0 2.0 0.00 0.00 0.00 74 1014.4
20260906134559 88 134 0.0 2.0 0.00 0.00 0.00 76 1014.4
20260906134051 87 0 0.0 4.0 0.00 0.00 0.00 78 1014.5
20260906133551 86 84 0.0 4.0 0.00 0.00 0.00 78 1014.5
20260906133108 85 54 0.0 5.0 0.00 0.00 0.00 79 1014.5
20260906132552 84 0 1.0 5.0 0.00 0.00 0.00 80 1014.5
20260906132051 84 72 1.0 4.0 0.00 0.00 0.00 81 1014.4
20260906131610 83 49 0.0 4.0 0.00 0.00 0.00 83 1014.5
20260906131051 82 51 0.0 4.0 0.00 0.00 0.00 85 1014.5
20260906130551 81 77 0.0 3.0 0.00 0.00 0.00 86 1014.6
20260906125553 80 0 0.0 3.0 0.00 0.00 0.00 87 1014.6
20260906125051 80 94 1.0 3.0 0.00 0.00 0.00 87 1014.7
20260906124605 79 114 1.0 3.0 0.00 0.00 0.00 88 1014.6
20260906124051 79 0 0.0 2.0 0.00 0.00 0.00 89 1014.6
20260906123551 78 199 0.0 1.0 0.00 0.00 0.00 90 1014.7
20260906123107 78 0 0.0 1.0 0.00 0.00 0.00 91 1014.6
20260906122552 78 97 0.0 1.0 0.00 0.00 0.00 91 1014.5
20260906122052 77 0 0.0 2.0 0.00 0.00 0.00 92 1014.5
20260906121607 77 0 0.0 2.0 0.00 0.00 0.00 92 1014.3
20260906121051 77 0 0.0 2.0 0.00 0.00 0.00 93 1014.5
20260906120551 76 0 0.0 4.0 0.00 0.00 0.00 95 1014.4
20260906120111 76 55 1.0 4.0 0.00 0.00 0.00 96 1014.5
20260906115551 75 117 0.0 1.0 0.00 0.00 0.00 97 1014.5
20260906115053 75 113 0.0 1.0 0.00 0.00 0.00 97 1014.1
20260906114600 75 0 0.0 1.0 0.00 0.00 0.00 97 1014.0
20260906114051 75 0 0.0 1.0 0.00 0.00 0.00 96 1013.8
20260906113551 75 0 0.0 1.0 0.00 0.00 0.00 96 1013.8
20260906113058 75 0 0.0 1.0 0.00 0.00 0.00 96 1013.7
20260906112554 76 0 0.0 1.0 0.00 0.00 0.00 96 1013.6
20260906112051 76 0 0.0 1.0 0.00 0.00 0.00 96 1013.5
20260906111600 76 148 0.0 0.0 0.00 0.00 0.00 96 1013.3
20260906111051 76 0 0.0 0.0 0.00 0.00 0.00 96 1013.4
20260906110551 76 0 0.0 0.0 0.00 0.00 0.00 96 1013.2
20260906110103 76 0 0.0 0.0 0.00 0.00 0.00 95 1013.2
20260906105551 76 0 0.0 0.0 0.00 0.00 0.00 95 1013.0
20260906105052 76 0 0.0 0.0 0.00 0.00 0.00 95 1013.0
20260906104604 76 0 0.0 0.0 0.00 0.00 0.00 94 1012.9
20260906104051 76 0 0.0 0.0 0.00 0.00 0.00 94 1012.9
20260906103554 77 0 0.0 0.0 0.00 0.00 0.00 94 1012.9
20260906103109 77 0 0.0 0.0 0.00 0.00 0.00 95 1012.9
20260906102551 77 0 0.0 1.0 0.00 0.00 0.00 95 1013.0
20260906102051 77 0 0.0 1.0 0.00 0.00 0.00 95 1012.9
20260906101620 77 148 0.0 0.0 0.00 0.00 0.00 95 1012.9
20260906101051 77 0 0.0 0.0 0.00 0.00 0.00 95 1012.8
20260906100551 77 0 0.0 0.0 0.00 0.00 0.00 96 1012.8
20260906095551 77 0 0.0 1.0 0.00 0.00 0.00 96 1012.8
20260906095051 76 149 0.0 1.0 0.00 0.00 0.00 96 1012.8
20260906094607 76 0 0.0 0.0 0.00 0.00 0.00 96 1012.9
20260906094051 76 0 0.0 0.0 0.00 0.00 0.00 96 1012.9
20260906093552 76 0 0.0 0.0 0.00 0.00 0.00 96 1012.9
20260906093100 76 0 0.0 0.0 0.00 0.00 0.00 96 1012.8
20260906092551 76 0 0.0 0.0 0.00 0.00 0.00 96 1012.7
20260906092051 76 0 0.0 0.0 0.00 0.00 0.00 96 1012.7
20260906091603 76 0 0.0 0.0 0.00 0.00 0.00 96 1012.6
20260906091051 76 0 0.0 0.0 0.00 0.00 0.00 96 1012.6
20260906090553 76 0 0.0 1.0 0.00 0.00 0.00 96 1012.6
20260906085551 76 0 0.0 1.0 0.00 0.00 0.00 96 1012.7
20260906085051 76 0 0.0 1.0 0.00 0.00 0.00 96 1012.7
20260906084602 76 0 0.0 0.0 0.00 0.00 0.00 96 1012.6
20260906084052 76 0 0.0 0.0 0.00 0.00 0.00 95 1012.6
20260906083551 77 0 0.0 0.0 0.00 0.00 0.00 95 1012.6
20260906083105 77 0 0.0 0.0 0.00 0.00 0.00 95 1012.5
20260906082555 77 0 0.0 0.0 0.00 0.00 0.00 95 1012.6
20260906082119 77 0 0.0 0.0 0.00 0.00 0.00 95 1012.7
20260906081600 77 0 0.0 0.0 0.00 0.00 0.00 94 1012.6
20260906081051 77 0 0.0 0.0 0.00 0.00 0.00 94 1012.6
20260906080552 77 0 0.0 0.0 0.00 0.00 0.00 94 1012.7
20260906080106 77 0 0.0 1.0 0.00 0.00 0.00 94 1012.6
20260906075551 77 0 0.0 1.0 0.00 0.00 0.00 94 1012.6
20260906075051 77 0 0.0 0.0 0.00 0.00 0.00 94 1012.7
20260906074602 77 0 0.0 0.0 0.00 0.00 0.00 94 1012.7
20260906074051 77 0 0.0 0.0 0.00 0.00 0.00 94 1012.6
20260906073554 77 0 0.0 0.0 0.00 0.00 0.00 94 1012.6
20260906073102 77 0 0.0 1.0 0.00 0.00 0.00 94 1012.6
20260906072551 78 0 0.0 1.0 0.00 0.00 0.00 94 1012.6
20260906072051 78 0 0.0 2.0 0.00 0.00 0.00 94 1012.7
20260906071605 78 0 0.0 2.0 0.00 0.00 0.00 94 1012.6
20260906071052 78 0 0.0 2.0 0.00 0.00 0.00 95 1012.6
20260906070552 78 57 0.0 1.0 0.00 0.00 0.00 95 1012.7
20260906070108 78 0 0.0 0.0 0.00 0.00 0.00 95 1012.5
20260906065551 78 0 0.0 0.0 0.00 0.00 0.00 95 1012.4
20260906065051 78 0 0.0 0.0 0.00 0.00 0.00 94 1012.4
20260906064603 78 0 0.0 0.0 0.00 0.00 0.00 94 1012.4
20260906064051 78 0 0.0 0.0 0.00 0.00 0.00 94 1012.5
20260906063550 78 0 0.0 0.0 0.00 0.00 0.00 94 1012.5
20260906063100 78 0 0.0 1.0 0.00 0.00 0.00 93 1012.5
20260906062550 78 0 0.0 1.0 0.00 0.00 0.00 94 1012.7
20260906062051 78 108 0.0 1.0 0.00 0.00 0.00 93 1012.7
20260906061601 78 0 0.0 0.0 0.00 0.00 0.00 93 1012.8
20260906061051 78 0 0.0 0.0 0.00 0.00 0.00 93 1012.9
20260906060551 78 0 0.0 1.0 0.00 0.00 0.00 93 1012.9
20260906060136 78 0 0.0 1.0 0.00 0.00 0.00 92 1012.9
20260906055552 79 0 0.0 1.0 0.00 0.00 0.00 93 1012.9
20260906055051 79 0 0.0 1.0 0.00 0.00 0.00 93 1012.9
20260906054612 79 0 0.0 1.0 0.00 0.00 0.00 93 1012.8
20260906054052 79 108 0.0 1.0 0.00 0.00 0.00 92 1012.9
20260906053551 79 0 0.0 1.0 0.00 0.00 0.00 92 1012.9
20260906053101 79 108 0.0 1.0 0.00 0.00 0.00 92 1012.9
20260906052552 79 0 0.0 0.0 0.00 0.00 0.00 92 1012.9
20260906052052 79 0 0.0 0.0 0.00 0.00 0.00 92 1012.9
20260906051602 80 0 0.0 1.0 0.00 0.00 0.00 91 1012.9
20260906051055 80 0 0.0 1.0 0.00 0.00 0.00 90 1012.9
20260906050555 80 0 0.0 1.0 0.00 0.00 0.00 91 1012.8
20260906050108 80 0 0.0 1.0 0.00 0.00 0.00 91 1012.8
20260906045551 80 0 0.0 0.0 0.00 0.00 0.00 91 1012.8
20260906045051 80 0 0.0 0.0 0.00 0.00 0.00 90 1012.8
20260906044601 80 0 0.0 0.0 0.00 0.00 0.00 90 1012.8
20260906044053 80 0 0.0 1.0 0.00 0.00 0.00 90 1012.9
20260906043550 80 0 0.0 1.0 0.00 0.00 0.00 90 1012.7
20260906043102 80 0 0.0 1.0 0.00 0.00 0.00 90 1012.8
20260906042552 80 0 0.0 0.0 0.00 0.00 0.00 91 1012.7
20260906042051 80 0 0.0 0.0 0.00 0.00 0.00 90 1012.8
20260906041602 80 0 0.0 1.0 0.00 0.00 0.00 90 1012.8
20260906041050 81 0 0.0 1.0 0.00 0.00 0.00 89 1012.7
20260906040552 81 0 0.0 1.0 0.00 0.00 0.00 89 1012.8
20260906035551 81 108 0.0 1.0 0.00 0.00 0.00 89 1012.7
20260906035053 81 0 0.0 0.0 0.00 0.00 0.00 89 1012.7
20260906034604 81 0 0.0 0.0 0.00 0.00 0.00 89 1012.8
20260906034051 81 0 0.0 0.0 0.00 0.00 0.00 89 1012.8
20260906033552 81 0 0.0 0.0 0.00 0.00 0.00 89 1012.8
20260906033100 81 0 0.0 0.0 0.00 0.00 0.00 88 1012.9
20260906032551 81 0 0.0 0.0 0.00 0.00 0.00 88 1012.8
20260906032051 81 0 0.0 0.0 0.00 0.00 0.00 87 1012.7
20260906031604 82 0 0.0 0.0 0.00 0.00 0.00 87 1012.7
20260906031051 82 0 0.0 0.0 0.00 0.00 0.00 86 1012.7
20260906030550 82 0 0.0 0.0 0.00 0.00 0.00 86 1012.6
20260906030059 82 0 0.0 0.0 0.00 0.00 0.00 86 1012.5
20260906025551 82 0 0.0 0.0 0.00 0.00 0.00 86 1012.5
20260906025051 83 0 0.0 0.0 0.00 0.00 0.00 86 1012.7
20260906024608 83 0 0.0 1.0 0.00 0.00 0.00 85 1012.8
20260906024051 83 0 0.0 1.0 0.00 0.00 0.00 84 1012.7
20260906023552 83 0 0.0 1.0 0.00 0.00 0.00 82 1012.6
20260906023104 83 0 0.0 1.0 0.00 0.00 0.00 82 1012.5
20260906022551 83 0 0.0 1.0 0.00 0.00 0.00 81 1012.4
20260906022051 84 0 0.0 1.0 0.00 0.00 0.00 81 1012.5
20260906021606 84 0 0.0 1.0 0.00 0.00 0.00 81 1012.4
20260906021052 84 0 0.0 1.0 0.00 0.00 0.00 81 1012.4
20260906020551 85 0 0.0 1.0 0.00 0.00 0.00 81 1012.4
20260906015551 85 119 0.0 1.0 0.00 0.00 0.00 81 1012.2
20260906015052 85 123 0.0 1.0 0.00 0.00 0.00 80 1012.1
20260906014604 86 0 0.0 0.0 0.00 0.00 0.00 80 1012.2
20260906014051 86 0 0.0 0.0 0.00 0.00 0.00 79 1012.1
20260906013553 86 0 0.0 0.0 0.00 0.00 0.00 79 1012.1
20260906013101 86 0 0.0 0.0 0.00 0.00 0.00 79 1012.0
20260906012550 86 0 0.0 0.0 0.00 0.00 0.00 78 1011.9
20260906012051 86 0 0.0 0.0 0.00 0.00 0.00 78 1011.8
20260906011602 87 0 0.0 1.0 0.00 0.00 0.00 77 1011.6
20260906011051 87 0 0.0 1.0 0.00 0.00 0.00 76 1011.6
20260906010551 88 0 0.0 1.0 0.00 0.00 0.00 75 1011.6
20260906010140 88 124 0.0 1.0 0.00 0.00 0.00 75 1011.5
20260906005551 88 0 0.0 1.0 0.00 0.00 0.00 73 1011.5
20260906005052 88 0 0.0 1.0 0.00 0.00 0.00 73 1011.5
20260906004617 89 0 0.0 1.0 0.00 0.00 0.00 72 1011.4
20260906004051 89 0 0.0 1.0 0.00 0.00 0.00 72 1011.3
20260906003551 90 0 0.0 1.0 0.00 0.00 0.00 71 1011.3
20260906003100 90 126 0.0 1.0 0.00 0.00 0.00 70 1011.4
20260906002552 91 127 0.0 1.0 0.00 0.00 0.00 69 1011.3
20260906002052 91 0 0.0 1.0 0.00 0.00 0.00 67 1011.3
20260906001606 92 127 0.0 1.0 0.00 0.00 0.00 65 1011.4
20260906001051 93 0 0.0 1.0 0.00 0.00 0.00 66 1011.3
20260906000551 93 127 0.0 1.0 0.00 0.00 0.00 64 1011.3
20260905235553 95 0 0.0 1.0 0.00 0.00 0.00 56 1011.4
20260905235051 96 0 0.0 1.0 0.00 0.00 0.00 55 1011.4
20260905234601 96 0 0.0 1.0 0.00 0.00 0.00 53 1011.4
20260905234052 97 127 0.0 3.0 0.00 0.00 0.00 52 1011.4
20260905233551 98 0 0.0 3.0 0.00 0.00 0.00 52 1011.5
20260905233059 98 0 0.0 3.0 0.00 0.00 0.00 50 1011.5
20260905232551 99 0 0.0 1.0 0.00 0.00 0.00 50 1011.5
20260905232054 100 123 0.0 1.0 0.00 0.00 0.00 48 1011.5
20260905231557 100 129 0.0 2.0 0.00 0.00 0.00 48 1011.5
20260905231051 100 136 0.0 2.0 0.00 0.00 0.00 49 1011.6
20260905230551 100 0 0.0 2.0 0.00 0.00 0.00 47 1011.6
20260905230103 100 136 0.0 3.0 0.00 0.00 0.00 48 1011.6
20260905225551 100 146 1.0 3.0 0.00 0.00 0.00 47 1011.6
20260905225051 101 129 0.0 3.0 0.00 0.00 0.00 47 1011.6
20260905224601 101 185 0.0 2.0 0.00 0.00 0.00 46 1011.7
20260905224054 100 150 1.0 2.0 0.00 0.00 0.00 46 1011.7
20260905223551 101 125 1.0 2.0 0.00 0.00 0.00 46 1011.7
20260905223104 101 105 0.0 4.0 0.00 0.00 0.00 46 1011.7
20260905222551 101 104 1.0 4.0 0.00 0.00 0.00 49 1011.7
20260905222050 100 92 1.0 4.0 0.00 0.00 0.00 48 1011.7
20260905221602 100 127 1.0 4.0 0.00 0.00 0.00 47 1011.6
20260905221052 100 134 0.0 3.0 0.00 0.00 0.00 47 1011.8
20260905220551 100 147 1.0 3.0 0.00 0.00 0.00 47 1011.7
20260905220104 101 129 1.0 4.0 0.00 0.00 0.00 45 1011.8
20260905215551 101 100 2.0 4.0 0.00 0.00 0.00 48 1011.8
20260905215052 101 124 1.0 4.0 0.00 0.00 0.00 47 1011.8
20260905214601 101 70 1.0 5.0 0.00 0.00 0.00 48 1011.8
20260905214051 101 89 1.0 6.0 0.00 0.00 0.00 51 1011.8
20260905213553 100 105 2.0 6.0 0.00 0.00 0.00 51 1011.8
20260905213101 100 158 2.0 6.0 0.00 0.00 0.00 52 1011.8
20260905212552 100 79 2.0 7.0 0.00 0.00 0.00 51 1011.8
20260905212051 100 153 3.0 7.0 0.00 0.00 0.00 49 1011.8
20260905211613 101 89 2.0 7.0 0.00 0.00 0.00 49 1011.8
20260905211051 103 225 2.0 7.0 0.00 0.00 0.00 46 1011.9
20260905210550 103 33 1.0 6.0 0.00 0.00 0.00 47 1011.8
20260905210120 103 150 1.0 6.0 0.00 0.00 0.00 46 1011.9
20260905205551 103 78 1.0 6.0 0.00 0.00 0.00 47 1012.0
20260905205051 103 61 2.0 6.0 0.00 0.00 0.00 50 1012.1
20260905204601 102 95 2.0 6.0 0.00 0.00 0.00 50 1012.2
20260905204050 102 65 2.0 6.0 0.00 0.00 0.00 48 1012.2
20260905203555 103 97 2.0 6.0 0.00 0.00 0.00 50 1012.1
20260905203101 103 104 2.0 6.0 0.00 0.00 0.00 48 1012.4
20260905202555 103 129 2.0 6.0 0.00 0.00 0.00 45 1012.5
20260905202049 103 132 2.0 6.0 0.00 0.00 0.00 46 1012.5
20260905201602 102 132 2.0 5.0 0.00 0.00 0.00 49 1012.9
20260905201051 101 104 1.0 5.0 0.00 0.00 0.00 49 1012.9
20260905200551 101 204 1.0 5.0 0.00 0.00 0.00 51 1012.8
20260905200130 99 192 1.0 5.0 0.00 0.00 0.00 51 1012.9
20260905195551 99 106 2.0 7.0 0.00 0.00 0.00 51 1012.9
20260905195051 99 81 2.0 7.0 0.00 0.00 0.00 50 1013.0
20260905194601 100 159 3.0 10.0 0.00 0.00 0.00 49 1013.1
20260905194053 102 164 4.0 10.0 0.00 0.00 0.00 46 1013.1
20260905193550 103 129 2.0 10.0 0.00 0.00 0.00 44 1013.1
20260905193108 104 156 1.0 5.0 0.00 0.00 0.00 44 1013.2
20260905192552 104 98 1.0 4.0 0.00 0.00 0.00 45 1013.2
20260905192052 103 118 1.0 4.0 0.00 0.00 0.00 44 1013.4
20260905191601 103 119 1.0 4.0 0.00 0.00 0.00 47 1013.4
20260905191051 103 136 1.0 5.0 0.00 0.00 0.00 45 1013.5
20260905190552 103 333 2.0 5.0 0.00 0.00 0.00 45 1013.6
20260905190105 103 79 1.0 5.0 0.00 0.00 0.00 49 1013.6
20260905185550 102 150 2.0 7.0 0.00 0.00 0.00 46 1013.6
20260905185051 102 129 2.0 7.0 0.00 0.00 0.00 50 1013.7
20260905184611 101 176 2.0 7.0 0.00 0.00 0.00 48 1013.7
20260905184053 101 87 2.0 6.0 0.00 0.00 0.00 51 1013.7
20260905183552 101 221 1.0 8.0 0.00 0.00 0.00 49 1013.9
20260905183102 101 118 1.0 8.0 0.00 0.00 0.00 50 1014.0
20260905182551 102 122 2.0 8.0 0.00 0.00 0.00 47 1014.1
20260905182052 103 203 2.0 5.0 0.00 0.00 0.00 48 1014.0
20260905181607 103 167 1.0 3.0 0.00 0.00 0.00 48 1014.0
20260905181051 102 75 0.0 3.0 0.00 0.00 0.00 52 1014.0
20260905180552 102 0 1.0 3.0 0.00 0.00 0.00 49 1014.1
20260905180106 103 96 0.0 2.0 0.00 0.00 0.00 48 1014.2
20260905175554 102 86 1.0 5.0 0.00 0.00 0.00 50 1014.2
20260905175052 102 115 1.0 5.0 0.00 0.00 0.00 48 1014.4
20260905174606 103 101 2.0 4.0 0.00 0.00 0.00 47 1014.3
20260905174051 102 66 2.0 4.0 0.00 0.00 0.00 49 1014.3
20260905173551 102 89 0.0 5.0 0.00 0.00 0.00 52 1014.4
20260905173104 102 188 1.0 5.0 0.00 0.00 0.00 50 1014.3
20260905172551 102 103 1.0 6.0 0.00 0.00 0.00 55 1014.4
20260905172051 101 235 2.0 6.0 0.00 0.00 0.00 51 1014.4
20260905171601 101 108 1.0 6.0 0.00 0.00 0.00 51 1014.5
20260905171052 101 346 1.0 5.0 0.00 0.00 0.00 51 1014.7
20260905170552 101 204 1.0 5.0 0.00 0.00 0.00 52 1014.7
20260905170104 100 96 2.0 5.0 0.00 0.00 0.00 52 1014.7
20260905165551 101 123 0.0 4.0 0.00 0.00 0.00 53 1014.8
20260905165051 100 135 1.0 4.0 0.00 0.00 0.00 54 1014.9
20260905164606 100 129 1.0 4.0 0.00 0.00 0.00 50 1014.9
20260905164055 100 143 1.0 4.0 0.00 0.00 0.00 51 1015.0